Rocky Mountain Metropolitan Airport Denver US
ICAO: KBJC
IATA: BJC
Category: Medium
Scheduled Services: No

Elevation: 5673 ft
TransAlt. 18000 ft.

Airport Communications:
DENVER APP/DEP:126.1
ATIS:126.25
CTAF:118.6
GND:121.7
TWR:118.6

KBJC Zoom In..

Runways:

(A) RW 02 length 3600 ft width 75 ft
---- / hdg 23

(B) RW 11L length 9000 ft width 100 ft
---- / hdg 113

(C) RW 11R length 7002 ft width 75 ft
---- / hdg 113

(D) RW 20 length 3600 ft width 75 ft
---- / hdg 203

(E) RW 29L length 7002 ft width 75 ft
---- / hdg 293

(F) RW 29R length 9000 ft width 100 ft
ILS 111.70 / hdg 293

Location; KBJC
Day. 25 / Time. 00.57 Zulu
* Altimeter: 29.98
* Temperature: -03° c. -26.6°f.
* Wind from: 240° Speed 05 kn.
Dewpoint: -09° c.
Visibility: 10 Statute Miles.
Clouds: Scattered 15000 ft.

KBJC 250057Z 24005KT 10SM SCT150 M03/M09 A2998

Going to: --> -->


Wind From 240°
Speed 05 kn.

 
 
jpsmedia worldairports.se 2020   terms of use